Вернуться в каталог

WILDFIRE 1

АктивенНаукаPO
NORAD 57764·PAYLOAD·🇺🇸 United States

Запущен Sep 2, 2023 с Vandenberg Space Force Base

Loading…

Ближайшие Пролёты (ближайшие 24 часа)

TLE

СвежийSource: Space-Track

Эпоха: Sep 14, 2026, 11:49 UTC

1 57764U 23133H   26257.49304592  .00000081  00000-0  60761-4 0  9992
2 57764  80.9965 281.1928 0007512 116.7935 243.3990 13.85744432153422

Отслеживайте WILDFIRE 1 в реальном времени с AllMySat

Download on the App Store